Time,TemperatureF,DewpointF,PressureIn,WindDirection,WindDirectionDegrees,WindSpeedMPH,WindSpeedGustMPH,Humidity,HourlyPrecipIn,Conditions,Clouds,dailyrainin,SoftwareType,DateUTC
2013-03-04 00:00:00,46.7,43.6,30.07,WNW,302,0.0,1.0,89,0.00,,,0.00,WUHU216DAVISVP2,2013-03-04 08:00:00,
2013-03-04 00:05:00,46.7,43.6,30.07,NNW,331,0.0,3.0,89,0.00,,,0.00,WUHU216DAVISVP2,2013-03-04 08:05:00,
2013-03-04 00:10:00,46.6,43.5,30.07,NW,320,0.0,3.0,89,0.00,,,0.00,WUHU216DAVISVP2,2013-03-04 08:10:00,
2013-03-04 00:15:00,46.6,43.5,30.07,NW,321,0.0,3.0,89,0.00,,,0.00,WUHU216DAVISVP2,2013-03-04 08:15:00,
2013-03-04 00:20:00,46.5,43.4,30.08,WNW,289,2.0,3.0,89,0.00,,,0.00,WUHU216DAVISVP2,2013-03-04 08:20:00,
2013-03-04 00:25:00,46.5,43.4,30.08,WNW,301,0.0,2.0,89,0.00,,,0.00,WUHU216DAVISVP2,2013-03-04 08:25:00,
2013-03-04 00:30:00,46.5,43.4,30.08,WNW,284,0.0,2.0,89,0.00,,,0.00,WUHU216DAVISVP2,2013-03-04 08:30:00,
2013-03-04 00:35:00,46.4,43.3,30.08,WNW,284,0.0,2.0,89,0.00,,,0.00,WUHU216DAVISVP2,2013-03-04 08:35:00,
2013-03-04 00:40:00,46.4,43.3,30.07,WNW,284,1.0,2.0,89,0.00,,,0.00,WUHU216DAVISVP2,2013-03-04 08:40:00,
2013-03-04 00:45:00,46.4,43.3,30.07,WNW,284,0.0,2.0,89,0.00,,,0.00,WUHU216DAVISVP2,2013-03-04 08:45:00,
2013-03-04 00:50:00,46.3,43.2,30.07,WNW,284,0.0,1.0,89,0.00,,,0.00,WUHU216DAVISVP2,2013-03-04 08:50:00,
2013-03-04 00:55:00,46.3,43.2,30.07,WNW,284,0.0,1.0,89,0.00,,,0.00,WUHU216DAVISVP2,2013-03-04 08:55:00,
2013-03-04 01:00:00,46.3,43.2,30.07,WNW,284,0.0,1.0,89,0.00,,,0.00,WUHU216DAVISVP2,2013-03-04 09:00:00,
2013-03-04 01:05:00,46.4,43.3,30.08,WNW,284,0.0,1.0,89,0.00,,,0.00,WUHU216DAVISVP2,2013-03-04 09:05:00,
2013-03-04 01:10:00,46.4,43.3,30.08,NW,319,0.0,2.0,89,0.00,,,0.00,WUHU216DAVISVP2,2013-03-04 09:10:00,
2013-03-04 01:15:00,46.4,43.3,30.07,NW,319,1.0,2.0,89,0.00,,,0.00,WUHU216DAVISVP2,2013-03-04 09:15:00,
2013-03-04 01:20:00,46.4,43.3,30.07,NW,317,0.0,2.0,89,0.00,,,0.00,WUHU216DAVISVP2,2013-03-04 09:20:00,
2013-03-04 01:25:00,46.4,43.3,30.08,NW,317,0.0,2.0,89,0.00,,,0.00,WUHU216DAVISVP2,2013-03-04 09:25:00,
2013-03-04 01:30:00,46.5,43.4,30.08,NW,317,0.0,2.0,89,0.00,,,0.00,WUHU216DAVISVP2,2013-03-04 09:30:00,
2013-03-04 01:35:00,46.5,43.4,30.08,NW,317,0.0,2.0,89,0.00,,,0.00,WUHU216DAVISVP2,2013-03-04 09:35:00,
2013-03-04 01:40:00,46.5,43.4,30.08,NW,317,0.0,2.0,89,0.00,,,0.00,WUHU216DAVISVP2,2013-03-04 09:40:00,
2013-03-04 01:45:00,46.6,43.5,30.09,NW,317,0.0,1.0,89,0.00,,,0.00,WUHU216DAVISVP2,2013-03-04 09:45:00,
2013-03-04 01:50:00,46.5,43.4,30.08,NW,317,0.0,1.0,89,0.00,,,0.00,WUHU216DAVISVP2,2013-03-04 09:50:00,
2013-03-04 01:55:00,46.5,43.4,30.08,NW,317,0.0,1.0,89,0.00,,,0.00,WUHU216DAVISVP2,2013-03-04 09:55:00,
2013-03-04 02:00:00,46.5,43.4,30.08,NW,313,0.0,3.0,89,0.00,,,0.00,WUHU216DAVISVP2,2013-03-04 10:00:00,
2013-03-04 02:05:00,46.5,43.4,30.08,NW,313,0.0,3.0,89,0.00,,,0.00,WUHU216DAVISVP2,2013-03-04 10:05:00,
2013-03-04 02:10:00,46.5,43.4,30.08,NW,313,0.0,3.0,89,0.00,,,0.00,WUHU216DAVISVP2,2013-03-04 10:10:00,
2013-03-04 02:15:00,46.5,43.4,30.07,NW,313,0.0,3.0,89,0.00,,,0.00,WUHU216DAVISVP2,2013-03-04 10:15:00,
2013-03-04 02:20:00,46.5,43.4,30.08,NW,313,0.0,1.0,89,0.00,,,0.00,WUHU216DAVISVP2,2013-03-04 10:20:00,
2013-03-04 02:25:00,46.5,43.4,30.08,NW,313,0.0,1.0,89,0.00,,,0.00,WUHU216DAVISVP2,2013-03-04 10:25:00,
2013-03-04 02:30:00,46.5,43.4,30.07,NW,313,0.0,1.0,89,0.00,,,0.00,WUHU216DAVISVP2,2013-03-04 10:30:00,
2013-03-04 02:35:00,46.5,43.4,30.07,NW,313,0.0,1.0,89,0.00,,,0.00,WUHU216DAVISVP2,2013-03-04 10:35:00,
2013-03-04 02:40:00,46.5,43.4,30.07,NW,313,0.0,1.0,89,0.00,,,0.00,WUHU216DAVISVP2,2013-03-04 10:40:00,
2013-03-04 02:45:00,46.6,43.5,30.07,NW,313,1.0,3.0,89,0.00,,,0.00,WUHU216DAVISVP2,2013-03-04 10:45:00,
2013-03-04 02:50:00,46.6,43.5,30.08,NW,304,3.0,3.0,89,0.00,,,0.00,WUHU216DAVISVP2,2013-03-04 10:50:00,
2013-03-04 02:55:00,46.6,43.5,30.08,WNW,293,0.0,4.0,89,0.00,,,0.00,WUHU216DAVISVP2,2013-03-04 10:55:00,
2013-03-04 03:00:00,46.5,43.4,30.08,WNW,296,2.0,6.0,89,0.00,,,0.00,WUHU216DAVISVP2,2013-03-04 11:00:00,
2013-03-04 03:05:00,46.5,43.4,30.08,NNW,342,0.0,7.0,89,0.00,,,0.00,WUHU216DAVISVP2,2013-03-04 11:05:00,
2013-03-04 03:10:00,46.4,43.3,30.08,NNW,329,0.0,7.0,89,0.00,,,0.00,WUHU216DAVISVP2,2013-03-04 11:10:00,
2013-03-04 03:15:00,46.3,43.2,30.07,WNW,300,0.0,7.0,89,0.00,,,0.00,WUHU216DAVISVP2,2013-03-04 11:15:00,
2013-03-04 03:20:00,46.3,43.2,30.07,NW,310,0.0,7.0,89,0.00,,,0.00,WUHU216DAVISVP2,2013-03-04 11:20:00,
2013-03-04 03:25:00,46.3,43.5,30.08,NW,310,0.0,6.0,90,0.00,,,0.00,WUHU216DAVISVP2,2013-03-04 11:25:00,
2013-03-04 03:30:00,46.2,43.4,30.08,NW,312,0.0,3.0,90,0.00,,,0.00,WUHU216DAVISVP2,2013-03-04 11:30:00,
2013-03-04 03:35:00,46.2,43.4,30.08,NW,312,0.0,3.0,90,0.00,,,0.00,WUHU216DAVISVP2,2013-03-04 11:35:00,
2013-03-04 03:40:00,46.2,43.4,30.09,NW,312,0.0,3.0,90,0.00,,,0.00,WUHU216DAVISVP2,2013-03-04 11:40:00,
2013-03-04 03:45:00,46.1,43.3,30.08,NW,312,0.0,3.0,90,0.00,,,0.00,WUHU216DAVISVP2,2013-03-04 11:45:00,
2013-03-04 03:50:00,46.1,43.3,30.08,NW,312,0.0,1.0,90,0.00,,,0.00,WUHU216DAVISVP2,2013-03-04 11:50:00,
2013-03-04 03:55:00,46.1,43.3,30.08,NW,312,0.0,1.0,90,0.00,,,0.00,WUHU216DAVISVP2,2013-03-04 11:55:00,
2013-03-04 04:00:00,46.1,43.3,30.08,NW,312,0.0,0.0,90,0.00,,,0.00,WUHU216DAVISVP2,2013-03-04 12:00:00,
2013-03-04 04:05:00,46.1,43.3,30.08,NW,311,0.0,2.0,90,0.00,,,0.00,WUHU216DAVISVP2,2013-03-04 12:05:00,
2013-03-04 04:10:00,46.0,43.2,30.08,NW,304,0.0,2.0,90,0.00,,,0.00,WUHU216DAVISVP2,2013-03-04 12:10:00,
2013-03-04 04:15:00,46.1,43.3,30.08,NW,304,0.0,2.0,90,0.00,,,0.00,WUHU216DAVISVP2,2013-03-04 12:15:00,
2013-03-04 04:20:00,46.1,43.3,30.08,NW,304,0.0,2.0,90,0.00,,,0.00,WUHU216DAVISVP2,2013-03-04 12:20:00,
2013-03-04 04:25:00,46.1,43.3,30.09,WNW,283,1.0,4.0,90,0.00,,,0.00,WUHU216DAVISVP2,2013-03-04 12:25:00,
2013-03-04 04:30:00,46.0,42.9,30.08,North,350,1.0,5.0,89,0.00,,,0.00,WUHU216DAVISVP2,2013-03-04 12:30:00,
2013-03-04 04:35:00,45.9,42.8,30.08,NW,306,0.0,5.0,89,0.00,,,0.00,WUHU216DAVISVP2,2013-03-04 12:35:00,
2013-03-04 04:40:00,45.8,42.7,30.08,NW,306,0.0,5.0,89,0.00,,,0.00,WUHU216DAVISVP2,2013-03-04 12:40:00,
2013-03-04 04:45:00,45.8,42.7,30.08,WNW,290,2.0,5.0,89,0.00,,,0.00,WUHU216DAVISVP2,2013-03-04 12:45:00,
2013-03-04 04:50:00,45.7,42.6,30.09,NW,310,0.0,5.0,89,0.00,,,0.00,WUHU216DAVISVP2,2013-03-04 12:50:00,
2013-03-04 04:55:00,45.7,42.6,30.09,NNW,327,0.0,5.0,89,0.00,,,0.00,WUHU216DAVISVP2,2013-03-04 12:55:00,
2013-03-04 05:00:00,45.7,42.6,30.09,NW,311,0.0,5.0,89,0.00,,,0.00,WUHU216DAVISVP2,2013-03-04 13:00:00,
2013-03-04 05:05:00,45.6,42.5,30.09,North,360,0.0,5.0,89,0.00,,,0.00,WUHU216DAVISVP2,2013-03-04 13:05:00,
2013-03-04 05:10:00,45.6,42.5,30.09,WNW,302,0.0,4.0,89,0.00,,,0.00,WUHU216DAVISVP2,2013-03-04 13:10:00,
2013-03-04 05:15:00,45.5,42.4,30.09,NW,308,0.0,4.0,89,0.00,,,0.00,WUHU216DAVISVP2,2013-03-04 13:15:00,
2013-03-04 05:20:00,45.4,42.3,30.10,NW,315,0.0,4.0,89,0.00,,,0.00,WUHU216DAVISVP2,2013-03-04 13:20:00,
2013-03-04 05:25:00,45.3,42.2,30.09,WNW,300,0.0,4.0,89,0.00,,,0.00,WUHU216DAVISVP2,2013-03-04 13:25:00,
2013-03-04 05:30:00,45.2,42.1,30.09,WNW,300,0.0,4.0,89,0.00,,,0.00,WUHU216DAVISVP2,2013-03-04 13:30:00,
2013-03-04 05:35:00,45.2,42.1,30.09,NW,314,2.0,4.0,89,0.00,,,0.00,WUHU216DAVISVP2,2013-03-04 13:35:00,
2013-03-04 05:40:00,45.2,42.4,30.09,NW,310,0.0,4.0,90,0.00,,,0.00,WUHU216DAVISVP2,2013-03-04 13:40:00,
2013-03-04 05:45:00,45.2,42.4,30.09,NW,310,0.0,3.0,90,0.00,,,0.00,WUHU216DAVISVP2,2013-03-04 13:45:00,
2013-03-04 05:50:00,45.1,42.3,30.09,NW,310,0.0,3.0,90,0.00,,,0.00,WUHU216DAVISVP2,2013-03-04 13:50:00,
2013-03-04 05:55:00,45.1,42.3,30.09,NNW,339,0.0,2.0,90,0.00,,,0.00,WUHU216DAVISVP2,2013-03-04 13:55:00,
2013-03-04 06:00:00,45.0,42.2,30.09,NNW,339,0.0,2.0,90,0.00,,,0.00,WUHU216DAVISVP2,2013-03-04 14:00:00,
2013-03-04 06:05:00,45.0,42.2,30.09,NNW,339,0.0,2.0,90,0.00,,,0.00,WUHU216DAVISVP2,2013-03-04 14:05:00,
2013-03-04 06:10:00,45.0,42.2,30.09,NNW,339,0.0,2.0,90,0.00,,,0.00,WUHU216DAVISVP2,2013-03-04 14:10:00,
2013-03-04 06:15:00,45.0,42.2,30.09,NNW,339,0.0,2.0,90,0.00,,,0.00,WUHU216DAVISVP2,2013-03-04 14:15:00,
2013-03-04 06:20:00,44.9,42.1,30.09,NNW,339,1.0,2.0,90,0.00,,,0.00,WUHU216DAVISVP2,2013-03-04 14:20:00,
2013-03-04 06:25:00,44.9,42.1,30.09,NNW,339,0.0,1.0,90,0.00,,,0.00,WUHU216DAVISVP2,2013-03-04 14:25:00,
2013-03-04 06:30:00,44.9,42.1,30.09,NNW,339,0.0,1.0,90,0.00,,,0.00,WUHU216DAVISVP2,2013-03-04 14:30:00,
2013-03-04 06:35:00,44.9,42.1,30.09,NNW,339,0.0,1.0,90,0.00,,,0.00,WUHU216DAVISVP2,2013-03-04 14:35:00,
2013-03-04 06:40:00,44.8,42.0,30.09,NNW,339,0.0,1.0,90,0.00,,,0.00,WUHU216DAVISVP2,2013-03-04 14:40:00,
2013-03-04 06:45:00,44.7,41.9,30.09,NNW,339,0.0,1.0,90,0.00,,,0.00,WUHU216DAVISVP2,2013-03-04 14:45:00,
2013-03-04 06:50:00,44.7,41.9,30.09,NNW,335,1.0,1.0,90,0.00,,,0.00,WUHU216DAVISVP2,2013-03-04 14:50:00,
2013-03-04 06:55:00,44.8,42.0,30.10,NNW,335,0.0,1.0,90,0.00,,,0.00,WUHU216DAVISVP2,2013-03-04 14:55:00,
2013-03-04 07:00:00,44.7,41.9,30.10,NW,313,0.0,2.0,90,0.00,,,0.00,WUHU216DAVISVP2,2013-03-04 15:00:00,
2013-03-04 07:05:00,44.8,42.0,30.10,WNW,288,2.0,3.0,90,0.00,,,0.00,WUHU216DAVISVP2,2013-03-04 15:05:00,
2013-03-04 07:10:00,44.8,42.0,30.10,WNW,290,0.0,4.0,90,0.00,,,0.00,WUHU216DAVISVP2,2013-03-04 15:10:00,
2013-03-04 07:15:00,44.9,42.1,30.11,NNW,327,0.0,4.0,90,0.00,,,0.00,WUHU216DAVISVP2,2013-03-04 15:15:00,
2013-03-04 07:20:00,44.9,42.1,30.11,NW,323,2.0,4.0,90,0.00,,,0.00,WUHU216DAVISVP2,2013-03-04 15:20:00,
2013-03-04 07:25:00,44.9,42.1,30.11,NW,323,0.0,4.0,90,0.00,,,0.00,WUHU216DAVISVP2,2013-03-04 15:25:00,
2013-03-04 07:30:00,45.0,42.2,30.11,NW,323,1.0,4.0,90,0.00,,,0.00,WUHU216DAVISVP2,2013-03-04 15:30:00,
2013-03-04 07:35:00,45.0,42.2,30.11,NW,323,0.0,2.0,90,0.00,,,0.00,WUHU216DAVISVP2,2013-03-04 15:35:00,
2013-03-04 07:40:00,45.1,42.3,30.11,North,355,0.0,2.0,90,0.00,,,0.00,WUHU216DAVISVP2,2013-03-04 15:40:00,
2013-03-04 07:45:00,45.1,42.3,30.11,North,5,0.0,2.0,90,0.00,,,0.00,WUHU216DAVISVP2,2013-03-04 15:45:00,
2013-03-04 07:50:00,45.2,42.4,30.11,NNW,342,0.0,2.0,90,0.00,,,0.00,WUHU216DAVISVP2,2013-03-04 15:50:00,
2013-03-04 07:55:00,45.3,42.5,30.12,NNW,342,0.0,2.0,90,0.00,,,0.00,WUHU216DAVISVP2,2013-03-04 15:55:00,
2013-03-04 08:00:00,45.4,42.6,30.12,NW,320,0.0,2.0,90,0.00,,,0.00,WUHU216DAVISVP2,2013-03-04 16:00:00,
2013-03-04 08:05:00,45.5,42.7,30.11,WNW,302,0.0,3.0,90,0.00,,,0.00,WUHU216DAVISVP2,2013-03-04 16:05:00,
2013-03-04 08:10:00,45.6,42.8,30.12,WNW,290,0.0,4.0,90,0.00,,,0.00,WUHU216DAVISVP2,2013-03-04 16:10:00,
2013-03-04 08:15:00,45.8,43.0,30.12,West,273,0.0,4.0,90,0.00,,,0.00,WUHU216DAVISVP2,2013-03-04 16:15:00,
2013-03-04 08:20:00,45.9,43.1,30.11,NNW,328,0.0,4.0,90,0.00,,,0.00,WUHU216DAVISVP2,2013-03-04 16:20:00,
2013-03-04 08:25:00,46.1,43.3,30.11,WNW,293,0.0,4.0,90,0.00,,,0.00,WUHU216DAVISVP2,2013-03-04 16:25:00,
2013-03-04 08:30:00,46.4,43.6,30.12,WNW,293,1.0,4.0,90,0.00,,,0.00,WUHU216DAVISVP2,2013-03-04 16:30:00,
2013-03-04 08:35:00,46.7,43.6,30.11,WNW,293,0.0,4.0,89,0.00,,,0.00,WUHU216DAVISVP2,2013-03-04 16:35:00,
2013-03-04 08:40:00,46.9,43.5,30.11,NNW,338,0.0,4.0,88,0.00,,,0.00,WUHU216DAVISVP2,2013-03-04 16:40:00,
2013-03-04 08:45:00,47.2,43.8,30.11,North,5,0.0,3.0,88,0.00,,,0.00,WUHU216DAVISVP2,2013-03-04 16:45:00,
2013-03-04 08:50:00,47.5,43.8,30.11,NW,315,0.0,3.0,87,0.00,,,0.00,WUHU216DAVISVP2,2013-03-04 16:50:00,
2013-03-04 08:55:00,47.8,44.1,30.11,NW,316,0.0,3.0,87,0.00,,,0.00,WUHU216DAVISVP2,2013-03-04 16:55:00,
2013-03-04 09:00:00,48.0,44.0,30.11,NW,316,0.0,3.0,86,0.00,,,0.00,WUHU216DAVISVP2,2013-03-04 17:00:00,
2013-03-04 09:05:00,48.2,43.9,30.11,NW,326,0.0,4.0,85,0.00,,,0.00,WUHU216DAVISVP2,2013-03-04 17:05:00,
2013-03-04 09:10:00,48.4,43.8,30.11,WNW,286,1.0,5.0,84,0.00,,,0.00,WUHU216DAVISVP2,2013-03-04 17:10:00,
2013-03-04 09:15:00,48.6,44.3,30.12,WNW,292,0.0,5.0,85,0.00,,,0.00,WUHU216DAVISVP2,2013-03-04 17:15:00,
2013-03-04 09:20:00,48.8,44.2,30.12,WNW,288,0.0,6.0,84,0.00,,,0.00,WUHU216DAVISVP2,2013-03-04 17:20:00,
2013-03-04 09:25:00,48.9,44.0,30.12,West,277,1.0,6.0,83,0.00,,,0.00,WUHU216DAVISVP2,2013-03-04 17:25:00,
2013-03-04 09:30:00,49.1,44.2,30.12,NW,313,0.0,6.0,83,0.00,,,0.00,WUHU216DAVISVP2,2013-03-04 17:30:00,
2013-03-04 09:35:00,49.1,43.8,30.12,SW,235,1.0,6.0,82,0.00,,,0.00,WUHU216DAVISVP2,2013-03-04 17:35:00,
2013-03-04 09:40:00,49.0,43.8,30.12,WNW,303,1.0,5.0,82,0.00,,,0.00,WUHU216DAVISVP2,2013-03-04 17:40:00,
2013-03-04 09:45:00,49.0,43.8,30.12,WNW,303,0.0,5.0,82,0.00,,,0.00,WUHU216DAVISVP2,2013-03-04 17:45:00,
2013-03-04 09:50:00,49.0,43.7,30.12,NW,317,1.0,5.0,82,0.00,,,0.00,WUHU216DAVISVP2,2013-03-04 17:50:00,
2013-03-04 09:55:00,49.5,44.2,30.11,East,81,0.0,5.0,82,0.00,,,0.00,WUHU216DAVISVP2,2013-03-04 17:55:00,
2013-03-04 10:00:00,50.4,44.5,30.11,ENE,60,2.0,4.0,80,0.00,,,0.00,WUHU216DAVISVP2,2013-03-04 18:00:00,
2013-03-04 10:05:00,51.3,45.1,30.10,ESE,119,1.0,4.0,79,0.00,,,0.00,WUHU216DAVISVP2,2013-03-04 18:05:00,
2013-03-04 10:10:00,52.2,45.9,30.11,WSW,244,3.0,4.0,79,0.00,,,0.00,WUHU216DAVISVP2,2013-03-04 18:10:00,
2013-03-04 10:15:00,52.9,46.0,30.11,SW,217,1.0,4.0,77,0.00,,,0.00,WUHU216DAVISVP2,2013-03-04 18:15:00,
2013-03-04 10:20:00,53.5,45.8,30.12,SW,232,0.0,4.0,75,0.00,,,0.00,WUHU216DAVISVP2,2013-03-04 18:20:00,
2013-03-04 10:25:00,53.9,45.9,30.12,South,189,0.0,4.0,74,0.00,,,0.00,WUHU216DAVISVP2,2013-03-04 18:25:00,
2013-03-04 10:29:00,54.3,46.3,30.12,SSE,153,1.0,5.0,74,0.00,,,0.00,WUHU216DAVISVP2,2013-03-04 18:29:00,
2013-03-04 10:30:00,54.4,46.4,30.12,SSE,153,1.0,5.0,74,0.00,,,0.00,WUHU216DAVISVP2,2013-03-04 18:30:00,
2013-03-04 10:35:00,54.7,46.3,30.11,South,184,2.0,6.0,73,0.00,,,0.00,WUHU216DAVISVP2,2013-03-04 18:35:00,
2013-03-04 10:40:00,54.6,46.2,30.12,SSW,205,3.0,7.0,73,0.00,,,0.00,WUHU216DAVISVP2,2013-03-04 18:40:00,
2013-03-04 10:45:00,54.1,46.3,30.12,South,175,4.0,7.0,75,0.00,,,0.00,WUHU216DAVISVP2,2013-03-04 18:45:00,
2013-03-04 10:50:00,54.6,46.6,30.12,SSW,192,2.0,7.0,74,0.00,,,0.00,WUHU216DAVISVP2,2013-03-04 18:50:00,
2013-03-04 10:55:00,55.1,46.7,30.11,South,171,1.0,7.0,73,0.00,,,0.00,WUHU216DAVISVP2,2013-03-04 18:55:00,
2013-03-04 11:00:00,55.9,47.4,30.11,SSW,209,5.0,5.0,73,0.00,,,0.00,WUHU216DAVISVP2,2013-03-04 19:00:00,
2013-03-04 11:05:00,56.6,47.4,30.11,SW,220,2.0,5.0,71,0.00,,,0.00,WUHU216DAVISVP2,2013-03-04 19:05:00,
2013-03-04 11:10:00,56.3,47.1,30.11,SSW,211,3.0,7.0,71,0.00,,,0.00,WUHU216DAVISVP2,2013-03-04 19:10:00,
2013-03-04 11:15:00,56.1,46.9,30.11,South,179,2.0,7.0,71,0.00,,,0.00,WUHU216DAVISVP2,2013-03-04 19:15:00,
2013-03-04 11:20:00,56.5,47.6,30.11,SE,146,2.0,7.0,72,0.00,,,0.00,WUHU216DAVISVP2,2013-03-04 19:20:00,
2013-03-04 11:25:00,57.5,48.3,30.11,SSW,200,1.0,7.0,71,0.00,,,0.00,WUHU216DAVISVP2,2013-03-04 19:25:00,
2013-03-04 11:30:00,58.5,48.5,30.11,SSW,195,2.0,6.0,69,0.00,,,0.00,WUHU216DAVISVP2,2013-03-04 19:30:00,
2013-03-04 11:35:00,58.7,47.4,30.11,SSW,196,2.0,7.0,66,0.00,,,0.00,WUHU216DAVISVP2,2013-03-04 19:35:00,
2013-03-04 11:40:00,58.2,47.8,30.11,South,190,2.0,7.0,68,0.00,,,0.00,WUHU216DAVISVP2,2013-03-04 19:40:00,
2013-03-04 11:45:00,57.9,47.1,30.11,SSW,195,2.0,7.0,67,0.00,,,0.00,WUHU216DAVISVP2,2013-03-04 19:45:00,
2013-03-04 11:50:00,57.0,47.3,30.10,NNE,15,0.0,7.0,70,0.00,,,0.00,WUHU216DAVISVP2,2013-03-04 19:50:00,
2013-03-04 11:55:00,57.6,47.5,30.10,SSW,209,2.0,7.0,69,0.00,,,0.00,WUHU216DAVISVP2,2013-03-04 19:55:00,
2013-03-04 12:00:00,57.5,47.4,30.10,SW,232,2.0,7.0,69,0.00,,,0.00,WUHU216DAVISVP2,2013-03-04 20:00:00,
2013-03-04 12:05:00,57.6,47.2,30.10,South,185,3.0,5.0,68,0.00,,,0.00,WUHU216DAVISVP2,2013-03-04 20:05:00,
2013-03-04 12:10:00,57.2,46.9,30.10,SW,219,5.0,6.0,68,0.00,,,0.00,WUHU216DAVISVP2,2013-03-04 20:10:00,
2013-03-04 12:15:00,56.9,47.0,30.10,South,170,3.0,6.0,69,0.00,,,0.00,WUHU216DAVISVP2,2013-03-04 20:15:00,
2013-03-04 12:20:00,56.7,47.1,30.10,SSW,192,1.0,6.0,70,0.00,,,0.00,WUHU216DAVISVP2,2013-03-04 20:20:00,
2013-03-04 12:25:00,56.9,47.3,30.09,SSW,210,5.0,6.0,70,0.00,,,0.00,WUHU216DAVISVP2,2013-03-04 20:25:00,
2013-03-04 12:30:00,56.9,47.3,30.09,SW,217,1.0,6.0,70,0.00,,,0.00,WUHU216DAVISVP2,2013-03-04 20:30:00,
2013-03-04 12:35:00,57.3,47.6,30.08,South,188,2.0,6.0,70,0.00,,,0.00,WUHU216DAVISVP2,2013-03-04 20:35:00,
2013-03-04 12:40:00,57.5,47.5,30.08,SW,232,3.0,6.0,69,0.00,,,0.00,WUHU216DAVISVP2,2013-03-04 20:40:00,
2013-03-04 12:45:00,57.8,47.8,30.08,SSW,203,5.0,6.0,69,0.00,,,0.00,WUHU216DAVISVP2,2013-03-04 20:45:00,
2013-03-04 12:50:00,57.8,47.8,30.08,SSW,192,3.0,7.0,69,0.00,,,0.00,WUHU216DAVISVP2,2013-03-04 20:50:00,
2013-03-04 12:55:00,58.2,47.8,30.07,SSW,205,3.0,7.0,68,0.00,,,0.00,WUHU216DAVISVP2,2013-03-04 20:55:00,
2013-03-04 13:00:00,58.8,48.4,30.07,South,185,0.0,7.0,68,0.00,,,0.00,WUHU216DAVISVP2,2013-03-04 21:00:00,
2013-03-04 13:05:00,59.5,48.7,30.07,South,182,3.0,6.0,67,0.00,,,0.00,WUHU216DAVISVP2,2013-03-04 21:05:00,
2013-03-04 13:10:00,59.4,48.0,30.06,SSW,208,3.0,7.0,66,0.00,,,0.00,WUHU216DAVISVP2,2013-03-04 21:10:00,
2013-03-04 13:15:00,59.2,48.0,30.06,SSW,213,1.0,7.0,66,0.00,,,0.00,WUHU216DAVISVP2,2013-03-04 21:15:00,
2013-03-04 13:20:00,58.9,47.7,30.06,SW,235,4.0,8.0,66,0.00,,,0.00,WUHU216DAVISVP2,2013-03-04 21:20:00,
2013-03-04 13:25:00,58.8,48.4,30.06,SSW,199,6.0,8.0,68,0.00,,,0.00,WUHU216DAVISVP2,2013-03-04 21:25:00,
2013-03-04 13:30:00,59.0,48.1,30.06,SSE,148,4.0,8.0,67,0.00,,,0.00,WUHU216DAVISVP2,2013-03-04 21:30:00,
2013-03-04 13:35:00,58.9,47.7,30.06,South,181,1.0,8.0,66,0.00,,,0.00,WUHU216DAVISVP2,2013-03-04 21:35:00,
2013-03-04 13:40:00,58.6,47.8,30.06,South,186,1.0,8.0,67,0.00,,,0.00,WUHU216DAVISVP2,2013-03-04 21:40:00,
2013-03-04 13:45:00,59.1,48.3,30.05,SSW,211,1.0,7.0,67,0.00,,,0.00,WUHU216DAVISVP2,2013-03-04 21:45:00,
2013-03-04 13:50:00,59.2,48.0,30.05,SSE,150,1.0,7.0,66,0.00,,,0.00,WUHU216DAVISVP2,2013-03-04 21:50:00,
2013-03-04 13:55:00,59.6,48.6,30.05,SSE,153,2.0,7.0,67,0.00,,,0.00,WUHU216DAVISVP2,2013-03-04 21:55:00,
2013-03-04 14:00:00,60.2,48.5,30.05,SSW,201,2.0,7.0,65,0.00,,,0.00,WUHU216DAVISVP2,2013-03-04 22:00:00,
2013-03-04 14:05:00,60.0,48.3,30.05,SSW,192,1.0,7.0,65,0.00,,,0.00,WUHU216DAVISVP2,2013-03-04 22:05:00,
2013-03-04 14:10:00,59.7,47.9,30.04,SW,221,0.0,7.0,65,0.00,,,0.00,WUHU216DAVISVP2,2013-03-04 22:10:00,
2013-03-04 14:15:00,59.8,48.2,30.04,South,180,3.0,6.0,65,0.00,,,0.00,WUHU216DAVISVP2,2013-03-04 22:15:00,
2013-03-04 14:20:00,59.8,48.6,30.04,SW,215,2.0,6.0,66,0.00,,,0.00,WUHU216DAVISVP2,2013-03-04 22:20:00,
2013-03-04 14:25:00,60.2,48.5,30.04,SSW,208,1.0,5.0,65,0.00,,,0.00,WUHU216DAVISVP2,2013-03-04 22:25:00,
2013-03-04 14:30:00,60.4,48.7,30.04,SW,232,2.0,7.0,65,0.00,,,0.00,WUHU216DAVISVP2,2013-03-04 22:30:00,
2013-03-04 14:35:00,61.2,48.9,30.04,SW,226,3.0,7.0,64,0.00,,,0.00,WUHU216DAVISVP2,2013-03-04 22:35:00,
2013-03-04 14:40:00,61.4,49.3,30.04,SSW,200,6.0,7.0,64,0.00,,,0.00,WUHU216DAVISVP2,2013-03-04 22:40:00,
2013-03-04 14:45:00,61.3,48.7,30.03,SSW,203,4.0,6.0,63,0.00,,,0.00,WUHU216DAVISVP2,2013-03-04 22:45:00,
2013-03-04 14:50:00,60.9,48.8,30.03,SSW,194,0.0,6.0,64,0.00,,,0.00,WUHU216DAVISVP2,2013-03-04 22:50:00,
2013-03-04 14:55:00,60.9,48.8,30.03,South,184,3.0,7.0,64,0.00,,,0.00,WUHU216DAVISVP2,2013-03-04 22:55:00,
2013-03-04 15:00:00,60.8,49.1,30.03,South,184,2.0,7.0,65,0.00,,,0.00,WUHU216DAVISVP2,2013-03-04 23:00:00,
2013-03-04 15:05:00,61.1,48.8,30.03,South,182,3.0,7.0,64,0.00,,,0.00,WUHU216DAVISVP2,2013-03-04 23:05:00,
2013-03-04 15:10:00,60.9,48.2,30.03,SSW,195,2.0,7.0,63,0.00,,,0.00,WUHU216DAVISVP2,2013-03-04 23:10:00,
2013-03-04 15:15:00,60.7,48.4,30.03,South,183,3.0,7.0,64,0.00,,,0.00,WUHU216DAVISVP2,2013-03-04 23:15:00,
2013-03-04 15:20:00,60.8,48.5,30.03,South,169,2.0,7.0,64,0.00,,,0.00,WUHU216DAVISVP2,2013-03-04 23:20:00,
2013-03-04 15:25:00,60.9,48.2,30.03,SSE,157,3.0,7.0,63,0.00,,,0.00,WUHU216DAVISVP2,2013-03-04 23:25:00,
2013-03-04 15:30:00,60.0,47.4,30.03,South,180,2.0,8.0,63,0.00,,,0.00,WUHU216DAVISVP2,2013-03-04 23:30:00,
2013-03-04 15:35:00,59.1,47.3,30.03,SSE,163,2.0,8.0,65,0.00,,,0.00,WUHU216DAVISVP2,2013-03-04 23:35:00,
2013-03-04 15:40:00,59.5,48.1,30.03,SW,217,2.0,8.0,66,0.00,,,0.00,WUHU216DAVISVP2,2013-03-04 23:40:00,
2013-03-04 15:45:00,60.2,48.0,30.03,South,185,4.0,8.0,64,0.00,,,0.00,WUHU216DAVISVP2,2013-03-04 23:45:00,
2013-03-04 15:50:00,60.3,48.6,30.03,SSE,153,2.0,6.0,65,0.00,,,0.00,WUHU216DAVISVP2,2013-03-04 23:50:00,
2013-03-04 15:55:00,60.6,48.5,30.03,South,169,1.0,6.0,64,0.00,,,0.00,WUHU216DAVISVP2,2013-03-04 23:55:00,
2013-03-04 16:00:00,61.0,48.5,30.03,SSE,155,2.0,6.0,63,0.00,,,0.00,WUHU216DAVISVP2,2013-03-05 00:00:00,
2013-03-04 16:05:00,61.1,48.6,30.03,South,169,3.0,6.0,63,0.00,,,0.00,WUHU216DAVISVP2,2013-03-05 00:05:00,
2013-03-04 16:10:00,61.4,48.8,30.03,South,176,0.0,5.0,63,0.00,,,0.00,WUHU216DAVISVP2,2013-03-05 00:10:00,
2013-03-04 16:15:00,61.8,48.8,30.03,South,185,0.0,5.0,62,0.00,,,0.00,WUHU216DAVISVP2,2013-03-05 00:15:00,
2013-03-04 16:20:00,62.1,48.6,30.03,SE,142,2.0,4.0,61,0.00,,,0.00,WUHU216DAVISVP2,2013-03-05 00:20:00,
2013-03-04 16:25:00,62.4,48.9,30.03,ENE,74,2.0,4.0,61,0.00,,,0.00,WUHU216DAVISVP2,2013-03-05 00:25:00,
2013-03-04 16:30:00,62.2,47.8,30.03,WSW,249,1.0,4.0,59,0.00,,,0.00,WUHU216DAVISVP2,2013-03-05 00:30:00,
2013-03-04 16:35:00,61.1,47.7,30.03,SW,217,3.0,5.0,61,0.00,,,0.00,WUHU216DAVISVP2,2013-03-05 00:35:00,
2013-03-04 16:40:00,59.6,47.0,30.03,SSW,211,3.0,5.0,63,0.00,,,0.00,WUHU216DAVISVP2,2013-03-05 00:40:00,
2013-03-04 16:45:00,58.7,47.5,30.03,SSW,195,2.0,5.0,66,0.00,,,0.00,WUHU216DAVISVP2,2013-03-05 00:45:00,
2013-03-04 16:50:00,58.3,47.0,30.03,South,171,1.0,5.0,66,0.00,,,0.00,WUHU216DAVISVP2,2013-03-05 00:50:00,
2013-03-04 16:55:00,58.4,47.2,30.03,SSW,211,0.0,5.0,66,0.00,,,0.00,WUHU216DAVISVP2,2013-03-05 00:55:00,
2013-03-04 17:00:00,58.9,47.7,30.03,SSW,207,0.0,4.0,66,0.00,,,0.00,WUHU216DAVISVP2,2013-03-05 01:00:00,
2013-03-04 17:05:00,59.2,47.4,30.03,South,177,1.0,4.0,65,0.00,,,0.00,WUHU216DAVISVP2,2013-03-05 01:05:00,
2013-03-04 17:10:00,59.4,47.8,30.03,SSE,162,0.0,3.0,65,0.00,,,0.00,WUHU216DAVISVP2,2013-03-05 01:10:00,
2013-03-04 17:15:00,59.8,47.7,30.04,SSE,162,0.0,3.0,64,0.00,,,0.00,WUHU216DAVISVP2,2013-03-05 01:15:00,
2013-03-04 17:20:00,60.0,47.9,30.04,SSE,162,0.0,3.0,64,0.00,,,0.00,WUHU216DAVISVP2,2013-03-05 01:20:00,
2013-03-04 17:25:00,60.1,48.0,30.04,SSE,162,0.0,2.0,64,0.00,,,0.00,WUHU216DAVISVP2,2013-03-05 01:25:00,
2013-03-04 17:30:00,60.2,48.1,30.04,SSE,162,0.0,1.0,64,0.00,,,0.00,WUHU216DAVISVP2,2013-03-05 01:30:00,
2013-03-04 17:35:00,60.2,48.0,30.04,SSE,162,0.0,1.0,64,0.00,,,0.00,WUHU216DAVISVP2,2013-03-05 01:35:00,
2013-03-04 17:40:00,60.0,47.9,30.04,SSE,162,0.0,1.0,64,0.00,,,0.00,WUHU216DAVISVP2,2013-03-05 01:40:00,
2013-03-04 17:45:00,59.7,47.5,30.04,SSE,162,0.0,1.0,64,0.00,,,0.00,WUHU216DAVISVP2,2013-03-05 01:45:00,
2013-03-04 17:50:00,59.0,47.4,30.04,SW,217,1.0,3.0,65,0.00,,,0.00,WUHU216DAVISVP2,2013-03-05 01:50:00,
2013-03-04 17:55:00,58.0,46.8,30.03,SSW,202,0.0,3.0,66,0.00,,,0.00,WUHU216DAVISVP2,2013-03-05 01:55:00,
2013-03-04 18:00:00,56.6,46.7,30.03,SSW,202,1.0,3.0,69,0.00,,,0.00,WUHU216DAVISVP2,2013-03-05 02:00:00,
2013-03-04 18:05:00,55.5,46.2,30.04,SSW,202,0.0,3.0,71,0.00,,,0.00,WUHU216DAVISVP2,2013-03-05 02:05:00,
2013-03-04 18:10:00,54.6,46.2,30.04,SW,228,2.0,2.0,73,0.00,,,0.00,WUHU216DAVISVP2,2013-03-05 02:10:00,
2013-03-04 18:15:00,54.0,46.0,30.04,South,175,0.0,2.0,74,0.00,,,0.00,WUHU216DAVISVP2,2013-03-05 02:15:00,
2013-03-04 18:20:00,53.5,45.9,30.04,SW,222,0.0,3.0,75,0.00,,,0.00,WUHU216DAVISVP2,2013-03-05 02:20:00,
2013-03-04 18:25:00,53.0,45.7,30.04,SW,222,0.0,3.0,76,0.00,,,0.00,WUHU216DAVISVP2,2013-03-05 02:25:00,
2013-03-04 18:30:00,52.6,45.6,30.03,SW,222,0.0,3.0,77,0.00,,,0.00,WUHU216DAVISVP2,2013-03-05 02:30:00,
2013-03-04 18:35:00,52.2,45.3,30.04,SW,222,0.0,3.0,77,0.00,,,0.00,WUHU216DAVISVP2,2013-03-05 02:35:00,
2013-03-04 18:40:00,51.7,45.1,30.04,SW,222,0.0,1.0,78,0.00,,,0.00,WUHU216DAVISVP2,2013-03-05 02:40:00,
2013-03-04 18:45:00,51.3,45.1,30.04,SW,222,0.0,1.0,79,0.00,,,0.00,WUHU216DAVISVP2,2013-03-05 02:45:00,
2013-03-04 18:50:00,50.8,44.9,30.04,SW,222,0.0,0.0,80,0.00,,,0.00,WUHU216DAVISVP2,2013-03-05 02:50:00,
2013-03-04 18:55:00,50.5,44.6,30.04,SW,222,0.0,0.0,80,0.00,,,0.00,WUHU216DAVISVP2,2013-03-05 02:55:00,
2013-03-04 19:00:00,50.2,44.6,30.04,SW,222,0.0,0.0,81,0.00,,,0.00,WUHU216DAVISVP2,2013-03-05 03:00:00,
2013-03-04 19:05:00,49.9,44.3,30.04,SW,222,0.0,0.0,81,0.00,,,0.00,WUHU216DAVISVP2,2013-03-05 03:05:00,
2013-03-04 19:10:00,49.6,44.3,30.04,SW,222,0.0,0.0,82,0.00,,,0.00,WUHU216DAVISVP2,2013-03-05 03:10:00,
2013-03-04 19:15:00,49.3,44.0,30.04,SW,222,0.0,0.0,82,0.00,,,0.00,WUHU216DAVISVP2,2013-03-05 03:15:00,
2013-03-04 19:20:00,49.1,44.2,30.04,SW,222,0.0,1.0,83,0.00,,,0.00,WUHU216DAVISVP2,2013-03-05 03:20:00,
2013-03-04 19:25:00,48.8,44.2,30.04,SW,222,0.0,1.0,84,0.00,,,0.00,WUHU216DAVISVP2,2013-03-05 03:25:00,
2013-03-04 19:30:00,48.6,44.0,30.04,SW,222,0.0,1.0,84,0.00,,,0.00,WUHU216DAVISVP2,2013-03-05 03:30:00,
2013-03-04 19:35:00,48.3,44.0,30.04,SW,222,0.0,1.0,85,0.00,,,0.00,WUHU216DAVISVP2,2013-03-05 03:35:00,
2013-03-04 19:40:00,48.1,43.8,30.04,SW,223,0.0,2.0,85,0.00,,,0.00,WUHU216DAVISVP2,2013-03-05 03:40:00,
2013-03-04 19:45:00,47.9,43.9,30.04,SSW,199,0.0,2.0,86,0.00,,,0.00,WUHU216DAVISVP2,2013-03-05 03:45:00,
2013-03-04 19:50:00,47.7,43.7,30.04,SSW,199,0.0,2.0,86,0.00,,,0.00,WUHU216DAVISVP2,2013-03-05 03:50:00,
2013-03-04 19:55:00,47.5,43.5,30.04,South,190,1.0,2.0,86,0.00,,,0.00,WUHU216DAVISVP2,2013-03-05 03:55:00,
2013-03-04 20:00:00,47.4,43.7,30.04,South,190,0.0,2.0,87,0.00,,,0.00,WUHU216DAVISVP2,2013-03-05 04:00:00,
2013-03-04 20:05:00,47.2,43.5,30.03,South,190,0.0,2.0,87,0.00,,,0.00,WUHU216DAVISVP2,2013-03-05 04:05:00,
2013-03-04 20:10:00,47.0,43.3,30.04,SSW,196,1.0,2.0,87,0.00,,,0.00,WUHU216DAVISVP2,2013-03-05 04:10:00,
2013-03-04 20:15:00,46.8,43.1,30.04,SSW,198,0.0,2.0,87,0.00,,,0.00,WUHU216DAVISVP2,2013-03-05 04:15:00,
2013-03-04 20:20:00,46.7,43.3,30.04,South,175,2.0,3.0,88,0.00,,,0.00,WUHU216DAVISVP2,2013-03-05 04:20:00,
2013-03-04 20:25:00,46.5,43.1,30.04,South,175,0.0,3.0,88,0.00,,,0.00,WUHU216DAVISVP2,2013-03-05 04:25:00,
2013-03-04 20:30:00,46.3,42.9,30.04,South,173,0.0,3.0,88,0.00,,,0.00,WUHU216DAVISVP2,2013-03-05 04:30:00,
2013-03-04 20:35:00,46.2,43.1,30.04,South,175,1.0,3.0,89,0.00,,,0.00,WUHU216DAVISVP2,2013-03-05 04:35:00,
2013-03-04 20:40:00,46.0,42.9,30.04,South,180,0.0,3.0,89,0.00,,,0.00,WUHU216DAVISVP2,2013-03-05 04:40:00,
2013-03-04 20:45:00,45.9,43.1,30.04,South,191,0.0,4.0,90,0.00,,,0.00,WUHU216DAVISVP2,2013-03-05 04:45:00,
2013-03-04 20:50:00,45.8,43.0,30.04,South,177,2.0,4.0,90,0.00,,,0.00,WUHU216DAVISVP2,2013-03-05 04:50:00,
2013-03-04 20:55:00,45.8,43.0,30.04,South,178,0.0,4.0,90,0.00,,,0.00,WUHU216DAVISVP2,2013-03-05 04:55:00,
2013-03-04 21:00:00,45.7,42.9,30.05,South,177,1.0,4.0,90,0.00,,,0.00,WUHU216DAVISVP2,2013-03-05 05:00:00,
2013-03-04 21:05:00,45.6,42.8,30.05,South,177,0.0,4.0,90,0.00,,,0.00,WUHU216DAVISVP2,2013-03-05 05:05:00,
2013-03-04 21:10:00,45.6,42.8,30.05,South,177,0.0,3.0,90,0.00,,,0.00,WUHU216DAVISVP2,2013-03-05 05:10:00,
2013-03-04 21:15:00,45.5,42.7,30.05,South,177,0.0,2.0,90,0.00,,,0.00,WUHU216DAVISVP2,2013-03-05 05:15:00,
2013-03-04 21:20:00,45.5,43.0,30.05,South,177,0.0,2.0,91,0.00,,,0.00,WUHU216DAVISVP2,2013-03-05 05:20:00,
2013-03-04 21:25:00,45.5,43.0,30.05,South,177,0.0,2.0,91,0.00,,,0.00,WUHU216DAVISVP2,2013-03-05 05:25:00,
2013-03-04 21:30:00,45.5,43.0,30.05,SSE,163,0.0,0.0,91,0.00,,,0.00,WUHU216DAVISVP2,2013-03-05 05:30:00,
2013-03-04 21:35:00,45.6,43.1,30.05,SSE,163,0.0,0.0,91,0.00,,,0.00,WUHU216DAVISVP2,2013-03-05 05:35:00,
2013-03-04 21:40:00,45.6,43.1,30.05,SSE,163,0.0,0.0,91,0.00,,,0.00,WUHU216DAVISVP2,2013-03-05 05:40:00,
2013-03-04 21:45:00,45.6,43.1,30.05,SSE,163,0.0,2.0,91,0.00,,,0.00,WUHU216DAVISVP2,2013-03-05 05:45:00,
2013-03-04 21:50:00,45.6,43.1,30.05,SSE,163,0.0,2.0,91,0.00,,,0.00,WUHU216DAVISVP2,2013-03-05 05:50:00,
2013-03-04 21:55:00,45.5,43.0,30.05,SSE,163,0.0,2.0,91,0.00,,,0.00,WUHU216DAVISVP2,2013-03-05 05:55:00,
2013-03-04 22:00:00,45.6,43.1,30.05,SSE,163,0.0,2.0,91,0.00,,,0.00,WUHU216DAVISVP2,2013-03-05 06:00:00,
2013-03-04 22:05:00,45.6,43.1,30.05,NNW,331,1.0,2.0,91,0.00,,,0.00,WUHU216DAVISVP2,2013-03-05 06:05:00,
2013-03-04 22:10:00,45.6,43.1,30.04,NW,306,0.0,2.0,91,0.00,,,0.00,WUHU216DAVISVP2,2013-03-05 06:10:00,
2013-03-04 22:15:00,45.6,43.1,30.05,NW,313,0.0,2.0,91,0.00,,,0.00,WUHU216DAVISVP2,2013-03-05 06:15:00,
2013-03-04 22:20:00,45.6,43.1,30.04,NW,313,0.0,2.0,91,0.00,,,0.00,WUHU216DAVISVP2,2013-03-05 06:20:00,
2013-03-04 22:25:00,45.6,43.1,30.04,WNW,296,0.0,2.0,91,0.00,,,0.00,WUHU216DAVISVP2,2013-03-05 06:25:00,
2013-03-04 22:30:00,45.6,43.1,30.05,WNW,296,0.0,2.0,91,0.00,,,0.00,WUHU216DAVISVP2,2013-03-05 06:30:00,
2013-03-04 22:35:00,45.6,43.1,30.05,NW,324,0.0,3.0,91,0.00,,,0.00,WUHU216DAVISVP2,2013-03-05 06:35:00,
2013-03-04 22:40:00,45.6,43.1,30.05,NW,324,0.0,3.0,91,0.00,,,0.00,WUHU216DAVISVP2,2013-03-05 06:40:00,
2013-03-04 22:45:00,45.6,43.1,30.05,NW,322,0.0,3.0,91,0.00,,,0.00,WUHU216DAVISVP2,2013-03-05 06:45:00,
2013-03-04 22:50:00,45.6,43.1,30.05,NW,321,0.0,3.0,91,0.00,,,0.00,WUHU216DAVISVP2,2013-03-05 06:50:00,
2013-03-04 22:55:00,45.6,43.1,30.05,NW,320,0.0,3.0,91,0.00,,,0.00,WUHU216DAVISVP2,2013-03-05 06:55:00,
2013-03-04 23:00:00,45.6,43.1,30.05,NNW,342,1.0,3.0,91,0.00,,,0.00,WUHU216DAVISVP2,2013-03-05 07:00:00,
2013-03-04 23:05:00,45.6,43.1,30.04,NNW,341,0.0,3.0,91,0.00,,,0.00,WUHU216DAVISVP2,2013-03-05 07:05:00,
2013-03-04 23:10:00,45.6,43.1,30.05,NNW,341,0.0,3.0,91,0.00,,,0.00,WUHU216DAVISVP2,2013-03-05 07:10:00,
2013-03-04 23:15:00,45.6,43.1,30.05,NNW,341,0.0,2.0,91,0.00,,,0.00,WUHU216DAVISVP2,2013-03-05 07:15:00,
2013-03-04 23:20:00,45.6,43.4,30.05,WNW,293,0.0,3.0,92,0.00,,,0.00,WUHU216DAVISVP2,2013-03-05 07:20:00,
2013-03-04 23:25:00,45.6,43.1,30.05,WNW,293,0.0,3.0,91,0.00,,,0.00,WUHU216DAVISVP2,2013-03-05 07:25:00,
2013-03-04 23:30:00,45.6,43.4,30.05,NW,309,0.0,3.0,92,0.00,,,0.00,WUHU216DAVISVP2,2013-03-05 07:30:00,
2013-03-04 23:35:00,45.5,43.3,30.05,NNW,336,0.0,3.0,92,0.00,,,0.00,WUHU216DAVISVP2,2013-03-05 07:35:00,
2013-03-04 23:40:00,45.4,43.2,30.05,NNW,336,0.0,2.0,92,0.00,,,0.00,WUHU216DAVISVP2,2013-03-05 07:40:00,
2013-03-04 23:45:00,45.4,43.2,30.04,NNW,336,0.0,2.0,92,0.00,,,0.00,WUHU216DAVISVP2,2013-03-05 07:45:00,
2013-03-04 23:50:00,45.4,43.2,30.05,NNW,336,0.0,2.0,92,0.00,,,0.00,WUHU216DAVISVP2,2013-03-05 07:50:00,
2013-03-04 23:55:00,45.4,43.2,30.05,NNW,336,0.0,1.0,92,0.00,,,0.00,WUHU216DAVISVP2,2013-03-05 07:55:00,